Location: Azat
(46.0765°N, 1.7600°E)
Time: 10:55:05
(UTC+00:00)

FALCON 9 DEB - Pass Details

Date: 09 April 2020
Orbit: 428 x 442 km, 53.0° (Epoch: 05 June)

Event Time Altitude Azimuth Distance (km) Brightness Sun altitude
Rises 19:25:10 0° 229° (SW) 2,424 7.3 -9.5°
Reaches altitude 10° 19:27:18 10° 227° (SW) 1,556 6.3 -9.9°
Maximum altitude 19:30:46 65° 145° (SE) 491 3.1 -10.4°
Drops below altitude 10° 19:34:15 10° 63° (ENE) 1,561 5.6 -11.0°
Enters shadow 19:35:01 - 62° (ENE) 1,874 6.0 -11.1°
